Simultaneous Nadir Overpasses (SNOs) Predictions

Prediction of SNOs between GOES-15 and NPP Satellite Orbit:

Table of predicted SNOs for the next 14.0 days since TLE Epoch: 7/17/2013
Index Date Time (GOES-15) GOES-15 Lat,Lon NPP Lat,Lon Distance(km) Time Diff (sec)
1 07/17/2013 22:33:29 0.22,-135.34 -0.24,-137.47 242.20 80
2 07/18/2013 22:17:23 0.21,-135.34 0.75,-132.93 275.39 80
3 07/20/2013 10:36:31 -0.23,-135.36 0.41,-138.19 322.70 80
4 07/21/2013 10:20:25 -0.23,-135.36 -0.58,-133.65 194.41 80
5 07/22/2013 22:39:41 0.25,-135.35 -0.55,-138.96 411.42 80
6 07/23/2013 22:23:36 0.24,-135.35 0.44,-134.42 105.62 80
7 07/25/2013 10:42:43 -0.26,-135.36 0.73,-139.68 492.83 80
8 07/26/2013 10:26:38 -0.25,-135.36 -0.27,-135.14 24.19 80
9 07/28/2013 22:27:09
